Torna al catalogo

TIANQI 29

AttivoComunicazioniLEO
NORAD 61195·PAYLOAD·🇨🇳 China

Lanciato Sep 20, 2024 da Xichang Satellite Launch Center

Loading…

Prossimi Passaggi (prossime 24 ore)

TLE

AggiornatoSource: Space-Track

Epoca: Sep 14, 2026, 14:26 UTC

1 61195U 24170A   26257.60199194  .00000018  00000-0  10227-3 0  9991
2 61195  44.8562  98.8868 0006180 158.3315 201.7778 13.97725830101370

Traccia TIANQI 29 in tempo reale con AllMySat

Download on the App Store